Simultaneous Nadir Overpasses (SNOs) Predictions

Prediction of SNOs between GOES-14 and AQUA Satellite Orbit:

Table of predicted SNOs for the next 14.0 days since TLE Epoch: 1/17/2020
Index Date Time (GOES-14) GOES-14 Lat,Lon AQUA Lat,Lon Distance(km) Time Diff (sec)
1 01/18/2020 08:32:58 -0.01,-104.31 0.09,-104.68 42.75 80
2 01/20/2020 08:20:48 -0.00,-104.31 -0.57,-101.73 293.98 80
3 01/20/2020 20:42:11 0.00,-104.06 -0.60,-106.91 324.35 80
4 01/22/2020 20:32:40 -0.01,-104.06 0.01,-103.95 12.40 80
5 01/24/2020 20:20:30 -0.01,-104.07 0.62,-100.99 349.19 80
6 01/25/2020 08:39:05 0.01,-104.32 0.42,-106.16 209.03 80
7 01/27/2020 08:29:35 0.01,-104.33 -0.25,-103.21 127.99 80
8 01/27/2020 20:50:59 -0.01,-104.08 -0.90,-108.39 489.77 80
9 01/29/2020 08:17:24 0.00,-104.34 -0.87,-100.25 465.29 80
10 01/29/2020 20:38:48 -0.00,-104.09 -0.28,-105.44 152.44 80




NCC Satellite Simultaneous Nadir Overpasses (SNOs) Prediction Service
